Details for Austrian at LOWG




Go Back


Latest METAR
Local Time

LOWG 221150Z 18005KT 160V220 9999 SCT009 SCT017 OVC065 12/10 Q1024 NOSIG
22/09/2018, 13:58:10

Description
Results
Austrian Logo
Number of Pilots based at LOWG
0 Pilots Based here
Number of Austrian Flights Departed from LOWG
0 Flights Departed
Number of Austrian Flights Arrived at LOWG
0 Flights Arrived
Number of Austrian Schedules Departing from LOWG
21 Schedules
Number of Austrian Schedules Arriving at LOWG
18 Schedules
Number of Austrian Schedules Departing from LOWG availible today
8 Schedules Today
Number of Austrian Schedules Arriving at LOWG availible today
7 Schedules Today
Average Landing Rate at LOWG
-92 fpm
Austrian Average Landing Rate at LOWG
0 fpm
Total Fuel Purchased at LOWG by Austrian
0.00 kgs / 0.00 lbs

Pilots Based at LOWG


Pilot ID
Pilot Name
Pilot Rank
No. of Flights
No. of Flying Hours
There are no pilots assigned to this hub!   Will you be the first?
Content